Skip Page Navigation
NASA JPL Caltech
NASA Logo - Jet Propulsion Laboratory + View the NASA Portal
+ Center for Near-Earth Object Studies
JPL Home Earth Solar System Stars & Galaxies Technology
JPL Solar System Dynamics
BODIES ORBITS EPHEMERIDES TOOLS PHYSICAL DATA DISCOVERY FAQ SITE MAP
JPL Small-Body Database Browser
Search: [ help ]  
344685 (2003 SH272)
Classification: Main-belt Asteroid          SPK-ID: 2344685
Ephemeris | Orbit Diagram | Orbital Elements | Mission Design | Physical Parameters | Discovery Circumstances | Close-Approach Data ]

[ show orbit diagram ]
Orbital Elements at Epoch 2459000.5 (2020-May-31.0) TDB
Reference: JPL 11 (heliocentric ecliptic J2000)
 Element Value Uncertainty (1-sigma)   Units 
e .1495897649015913 8.509e-08  
a 2.645532981476432 2.3371e-08 au
q 2.249788324737967 2.2739e-07 au
i 3.242560398241581 7.8081e-06 deg
node 268.4728798037709 0.00016682 deg
peri 86.86264797656663 0.00016916 deg
M 325.4320114935823 2.9036e-05 deg
tp 2459151.417570520610
(2020-Oct-28.91757052)
0.00012747 TDB
period 1571.694730728491
4.30
2.0827e-05
5.702e-08
d
yr
n .2290521135953275 3.0352e-09 deg/d
Q 3.041277638214898 2.6867e-08 au
  Orbit Determination Parameters
   # obs. used (total)      144  
   data-arc span      6670 days (18.26 yr)  
   first obs. used      2001-02-20  
   last obs. used      2019-05-27  
   planetary ephem.      DE431  
   SB-pert. ephem.      SB431-N16  
   condition code      0  
   norm. resid. RMS      .65755  
   source      ORB  
   producer      Otto Matic  
   solution date      2019-Sep-24 06:31:00  

Additional Information
 Earth MOID = 1.24798 au 
 Jupiter MOID = 2.41067 au 
 T_jup = 3.375 
[ show covariance matrix ]

Ephemeris | Orbit Diagram | Orbital Elements | Mission Design | Physical Parameters | Discovery Circumstances | Close-Approach Data ]

Physical Parameter Table
Parameter Symbol Value Units Sigma Reference Notes
absolute magnitude H 16.8   n/a MPO434168  

344685 (2003 SH272)          Discovered 2003-Sep-27 by LINEAR at Socorro
Reference: 20121128/Numbers.arcLast Updated: 2012-12-03

[ show close-approach data ]
Ephemeris | Orbit Diagram | Orbital Elements | Mission Design | Physical Parameters | Discovery Circumstances | Close-Approach Data ]
ABOUT SSD CREDITS/AWARDS PRIVACY/COPYRIGHT GLOSSARY LINKS
FirstGov 2020-Jul-10 17:32 UT
(server date/time)  
NASA Home Page
Site Manager:   Ryan S. Park
Webmaster  Alan B. Chamberlin